Location: Biharia
(46.4333°N, 22.8000°E)
Time: 04:05:06
(UTC+00:00)

Cosmos 494 Rocket - Pass Details

Date: 28 May 2022
Orbit: 742 x 770 km, 74.1° (Epoch: 05 July)

Event Time Altitude Azimuth Distance (km) Brightness Sun altitude
Rises 21:27:04 0° 344° (NNW) 3,194 8.8 -20.7°
Reaches altitude 10° 21:29:38 10° 353° (N) 2,265 7.6 -20.8°
Maximum altitude 21:34:20 36° 59° (ENE) 1,179 5.1 -21.0°
Enters shadow 21:36:39 24° 107° (ESE) 1,516 5.3 -21.1°
